| time (UTC) | temp F | wind direction | speed MPH | gust MPH | rain 1hr in | rain 24hr in | rain mn in | humidity % | barometer mb |
| 20260509173557 | 82 | 61 | 11.0 | 15.0 | 0.00 | 0.01 | 0.00 | 79 | 1010.1 |
| 20260509173105 | 82 | 98 | 7.0 | 12.0 | 0.00 | 0.01 | 0.00 | 79 | 1010.0 |
| 20260509172557 | 82 | 76 | 6.0 | 12.0 | 0.00 | 0.01 | 0.00 | 79 | 1010.0 |
| 20260509172100 | 82 | 72 | 6.0 | 12.0 | 0.00 | 0.01 | 0.00 | 79 | 1010.0 |
| 20260509171558 | 82 | 77 | 5.0 | 18.0 | 0.00 | 0.01 | 0.00 | 79 | 1010.0 |
| 20260509171057 | 82 | 98 | 8.0 | 18.0 | 0.00 | 0.01 | 0.00 | 79 | 1010.0 |
| 20260509170557 | 82 | 58 | 10.0 | 18.0 | 0.00 | 0.01 | 0.00 | 78 | 1010.0 |
| 20260509170059 | 82 | 98 | 9.0 | 14.0 | 0.00 | 0.01 | 0.00 | 79 | 1010.0 |
| 20260509165557 | 82 | 75 | 7.0 | 15.0 | 0.00 | 0.01 | 0.00 | 79 | 1010.1 |
| 20260509165100 | 82 | 73 | 6.0 | 15.0 | 0.00 | 0.01 | 0.00 | 79 | 1010.2 |
| 20260509164557 | 82 | 81 | 8.0 | 15.0 | 0.00 | 0.01 | 0.00 | 79 | 1010.3 |
| 20260509164057 | 82 | 80 | 3.0 | 17.0 | 0.00 | 0.01 | 0.00 | 79 | 1010.4 |
| 20260509163554 | 82 | 82 | 9.0 | 17.0 | 0.00 | 0.01 | 0.00 | 79 | 1010.3 |
| 20260509163059 | 82 | 82 | 7.0 | 14.0 | 0.00 | 0.01 | 0.00 | 79 | 1010.4 |
| 20260509162559 | 82 | 76 | 6.0 | 15.0 | 0.00 | 0.01 | 0.00 | 79 | 1010.4 |
| 20260509162102 | 82 | 72 | 9.0 | 15.0 | 0.00 | 0.01 | 0.00 | 79 | 1010.4 |
| 20260509161603 | 82 | 103 | 7.0 | 13.0 | 0.00 | 0.01 | 0.00 | 79 | 1010.5 |
| 20260509161058 | 82 | 67 | 8.0 | 13.0 | 0.00 | 0.01 | 0.00 | 79 | 1010.6 |
| 20260509160602 | 82 | 86 | 7.0 | 16.0 | 0.00 | 0.01 | 0.00 | 79 | 1010.5 |
| 20260509160100 | 82 | 360 | 10.0 | 16.0 | 0.00 | 0.01 | 0.00 | 79 | 1010.6 |
| 20260509155557 | 82 | 59 | 7.0 | 16.0 | 0.00 | 0.01 | 0.00 | 78 | 1010.5 |
| 20260509155057 | 82 | 68 | 9.0 | 16.0 | 0.00 | 0.01 | 0.00 | 78 | 1010.6 |
| 20260509154559 | 82 | 92 | 9.0 | 16.0 | 0.00 | 0.01 | 0.00 | 78 | 1010.7 |
| 20260509154058 | 82 | 66 | 7.0 | 13.0 | 0.00 | 0.01 | 0.00 | 78 | 1010.7 |
| 20260509153558 | 82 | 360 | 7.0 | 13.0 | 0.00 | 0.01 | 0.00 | 78 | 1010.7 |
| 20260509153056 | 82 | 360 | 9.0 | 13.0 | 0.00 | 0.01 | 0.00 | 78 | 1010.7 |
| 20260509152558 | 82 | 80 | 6.0 | 15.0 | 0.00 | 0.01 | 0.00 | 78 | 1010.7 |
| 20260509152100 | 82 | 67 | 8.0 | 16.0 | 0.00 | 0.01 | 0.00 | 78 | 1010.9 |
| 20260509151604 | 82 | 78 | 12.0 | 16.0 | 0.00 | 0.01 | 0.00 | 77 | 1010.9 |
| 20260509151057 | 82 | 76 | 8.0 | 16.0 | 0.00 | 0.01 | 0.00 | 77 | 1011.0 |
| 20260509150558 | 82 | 360 | 10.0 | 16.0 | 0.00 | 0.01 | 0.00 | 77 | 1011.0 |
| 20260509150057 | 82 | 89 | 7.0 | 15.0 | 0.00 | 0.01 | 0.00 | 77 | 1011.1 |
| 20260509145559 | 82 | 88 | 8.0 | 15.0 | 0.00 | 0.01 | 0.00 | 78 | 1011.1 |
| 20260509145058 | 82 | 83 | 7.0 | 15.0 | 0.00 | 0.01 | 0.00 | 78 | 1011.1 |
| 20260509144610 | 82 | 360 | 7.0 | 15.0 | 0.00 | 0.01 | 0.00 | 78 | 1011.1 |
| 20260509144100 | 82 | 95 | 7.0 | 15.0 | 0.00 | 0.01 | 0.00 | 77 | 1011.1 |
| 20260509143558 | 82 | 360 | 10.0 | 16.0 | 0.00 | 0.01 | 0.00 | 77 | 1011.2 |
| 20260509143124 | 82 | 127 | 10.0 | 16.0 | 0.00 | 0.01 | 0.00 | 77 | 1011.2 |
| 20260509142555 | 82 | 78 | 8.0 | 16.0 | 0.00 | 0.01 | 0.00 | 77 | 1011.3 |
| 20260509142102 | 82 | 71 | 9.0 | 16.0 | 0.00 | 0.01 | 0.00 | 77 | 1011.3 |
| 20260509141558 | 82 | 36 | 6.0 | 14.0 | 0.00 | 0.01 | 0.00 | 77 | 1011.4 |
| 20260509141058 | 82 | 85 | 8.0 | 14.0 | 0.00 | 0.01 | 0.00 | 77 | 1011.5 |
| 20260509140557 | 82 | 98 | 8.0 | 14.0 | 0.00 | 0.01 | 0.00 | 77 | 1011.7 |
| 20260509140106 | 82 | 85 | 9.0 | 14.0 | 0.00 | 0.01 | 0.00 | 77 | 1011.7 |
| 20260509135600 | 82 | 63 | 6.0 | 13.0 | 0.00 | 0.02 | 0.01 | 77 | 1011.7 |
| 20260509135057 | 82 | 85 | 9.0 | 14.0 | 0.00 | 0.02 | 0.01 | 78 | 1011.9 |
| 20260509134612 | 82 | 65 | 8.0 | 14.0 | 0.00 | 0.02 | 0.01 | 78 | 1011.9 |
| 20260509134059 | 82 | 92 | 10.0 | 14.0 | 0.00 | 0.02 | 0.01 | 78 | 1012.0 |
| 20260509133554 | 82 | 47 | 7.0 | 13.0 | 0.00 | 0.02 | 0.01 | 78 | 1012.0 |
| 20260509133056 | 83 | 88 | 5.0 | 13.0 | 0.00 | 0.02 | 0.01 | 77 | 1012.1 |
| 20260509132558 | 83 | 60 | 8.0 | 16.0 | 0.00 | 0.02 | 0.01 | 77 | 1012.2 |
| 20260509132100 | 82 | 92 | 9.0 | 16.0 | 0.00 | 0.02 | 0.01 | 77 | 1012.3 |
| 20260509131556 | 82 | 93 | 7.0 | 14.0 | 0.00 | 0.02 | 0.01 | 77 | 1012.3 |
| 20260509131057 | 83 | 51 | 7.0 | 12.0 | 0.00 | 0.02 | 0.01 | 77 | 1012.3 |
| 20260509130557 | 83 | 61 | 5.0 | 15.0 | 0.00 | 0.02 | 0.01 | 78 | 1012.4 |
| 20260509130101 | 83 | 90 | 7.0 | 15.0 | 0.00 | 0.02 | 0.01 | 77 | 1012.3 |
| 20260509125557 | 83 | 80 | 8.0 | 18.0 | 0.00 | 0.02 | 0.01 | 77 | 1012.3 |
| 20260509125058 | 83 | 63 | 6.0 | 18.0 | 0.00 | 0.02 | 0.01 | 77 | 1012.3 |
| 20260509124557 | 83 | 84 | 9.0 | 16.0 | 0.00 | 0.02 | 0.01 | 76 | 1012.3 |
| 20260509124058 | 83 | 360 | 10.0 | 16.0 | 0.00 | 0.02 | 0.01 | 76 | 1012.3 |
| 20260509123558 | 83 | 59 | 6.0 | 15.0 | 0.00 | 0.02 | 0.01 | 76 | 1012.3 |
| 20260509123127 | 83 | 65 | 7.0 | 15.0 | 0.00 | 0.02 | 0.01 | 76 | 1012.2 |
| 20260509122555 | 83 | 89 | 9.0 | 16.0 | 0.00 | 0.02 | 0.01 | 76 | 1012.2 |
| 20260509122057 | 83 | 74 | 7.0 | 16.0 | 0.00 | 0.02 | 0.01 | 76 | 1012.2 |
| 20260509121612 | 83 | 360 | 7.0 | 16.0 | 0.00 | 0.02 | 0.01 | 75 | 1012.2 |
| 20260509121056 | 83 | 360 | 8.0 | 15.0 | 0.00 | 0.02 | 0.01 | 76 | 1012.1 |
| 20260509120556 | 83 | 360 | 10.0 | 15.0 | 0.00 | 0.02 | 0.01 | 76 | 1012.1 |
| 20260509120113 | 83 | 90 | 6.0 | 15.0 | 0.00 | 0.02 | 0.01 | 76 | 1012.1 |
| 20260509115557 | 83 | 84 | 7.0 | 14.0 | 0.00 | 0.02 | 0.01 | 76 | 1012.1 |
| 20260509115057 | 83 | 95 | 8.0 | 14.0 | 0.00 | 0.02 | 0.01 | 76 | 1012.1 |
| 20260509114602 | 83 | 88 | 8.0 | 14.0 | 0.00 | 0.02 | 0.01 | 76 | 1012.1 |
| 20260509114058 | 83 | 360 | 8.0 | 15.0 | 0.00 | 0.02 | 0.01 | 76 | 1012.1 |
| 20260509113556 | 83 | 82 | 9.0 | 18.0 | 0.00 | 0.02 | 0.01 | 75 | 1012.2 |
| 20260509113103 | 83 | 62 | 8.0 | 18.0 | 0.00 | 0.02 | 0.01 | 76 | 1012.1 |
| 20260509112557 | 83 | 98 | 11.0 | 18.0 | 0.00 | 0.02 | 0.01 | 76 | 1012.1 |
| 20260509112058 | 83 | 74 | 9.0 | 17.0 | 0.00 | 0.02 | 0.01 | 77 | 1012.1 |
| 20260509111608 | 83 | 79 | 9.0 | 17.0 | 0.00 | 0.02 | 0.01 | 77 | 1012.0 |
| 20260509111059 | 83 | 98 | 4.0 | 18.0 | 0.00 | 0.02 | 0.01 | 77 | 1012.0 |
| 20260509110557 | 83 | 76 | 8.0 | 18.0 | 0.00 | 0.02 | 0.01 | 77 | 1012.0 |
| 20260509110106 | 83 | 126 | 10.0 | 17.0 | 0.00 | 0.02 | 0.01 | 76 | 1011.9 |
| 20260509105557 | 83 | 360 | 5.0 | 14.0 | 0.00 | 0.02 | 0.01 | 76 | 1012.0 |
| 20260509105058 | 83 | 76 | 8.0 | 17.0 | 0.00 | 0.02 | 0.01 | 76 | 1011.9 |
| 20260509104600 | 83 | 360 | 9.0 | 17.0 | 0.00 | 0.02 | 0.01 | 76 | 1011.8 |
| 20260509104058 | 83 | 360 | 9.0 | 18.0 | 0.00 | 0.02 | 0.01 | 76 | 1011.8 |
| 20260509103557 | 83 | 94 | 11.0 | 18.0 | 0.00 | 0.02 | 0.01 | 76 | 1011.7 |
| 20260509103106 | 83 | 105 | 9.0 | 15.0 | 0.00 | 0.02 | 0.01 | 76 | 1011.7 |
| 20260509102557 | 83 | 101 | 9.0 | 15.0 | 0.00 | 0.02 | 0.01 | 76 | 1011.7 |
| 20260509102058 | 83 | 94 | 6.0 | 13.0 | 0.00 | 0.02 | 0.01 | 76 | 1011.7 |
| 20260509101624 | 83 | 67 | 8.0 | 17.0 | 0.00 | 0.02 | 0.01 | 75 | 1011.7 |
| 20260509101058 | 83 | 103 | 11.0 | 17.0 | 0.00 | 0.02 | 0.01 | 75 | 1011.6 |
| 20260509100558 | 83 | 84 | 7.0 | 16.0 | 0.00 | 0.02 | 0.01 | 76 | 1011.5 |
| 20260509100059 | 83 | 360 | 7.0 | 18.0 | 0.00 | 0.02 | 0.01 | 76 | 1011.5 |
| 20260509095558 | 83 | 55 | 8.0 | 18.0 | 0.00 | 0.02 | 0.01 | 76 | 1011.4 |
| 20260509095057 | 83 | 88 | 6.0 | 16.0 | 0.00 | 0.02 | 0.01 | 76 | 1011.4 |
| 20260509094604 | 83 | 65 | 9.0 | 16.0 | 0.00 | 0.02 | 0.01 | 76 | 1011.4 |
| 20260509094057 | 83 | 78 | 10.0 | 16.0 | 0.00 | 0.02 | 0.01 | 76 | 1011.3 |
| 20260509093557 | 83 | 71 | 8.0 | 15.0 | 0.00 | 0.02 | 0.01 | 76 | 1011.3 |
| 20260509093106 | 83 | 117 | 7.0 | 15.0 | 0.00 | 0.02 | 0.01 | 75 | 1011.2 |
| 20260509092557 | 83 | 87 | 8.0 | 19.0 | 0.00 | 0.02 | 0.01 | 75 | 1011.2 |
| 20260509092057 | 83 | 80 | 8.0 | 19.0 | 0.00 | 0.02 | 0.01 | 75 | 1011.1 |
| 20260509091604 | 83 | 72 | 7.0 | 15.0 | 0.00 | 0.02 | 0.01 | 75 | 1011.1 |
| 20260509091058 | 83 | 86 | 7.0 | 16.0 | 0.00 | 0.02 | 0.01 | 75 | 1011.0 |
| 20260509090557 | 83 | 360 | 9.0 | 16.0 | 0.00 | 0.02 | 0.01 | 76 | 1011.0 |
| 20260509085557 | 83 | 92 | 8.0 | 16.0 | 0.00 | 0.02 | 0.01 | 76 | 1011.1 |
| 20260509085057 | 83 | 72 | 8.0 | 16.0 | 0.00 | 0.02 | 0.01 | 75 | 1011.1 |
| 20260509084558 | 83 | 88 | 10.0 | 16.0 | 0.00 | 0.02 | 0.01 | 75 | 1011.1 |
| 20260509084057 | 83 | 111 | 9.0 | 20.0 | 0.00 | 0.02 | 0.01 | 75 | 1011.1 |
| 20260509083556 | 83 | 95 | 9.0 | 20.0 | 0.00 | 0.02 | 0.01 | 74 | 1011.0 |
| 20260509083059 | 84 | 74 | 11.0 | 20.0 | 0.00 | 0.02 | 0.01 | 74 | 1010.9 |
| 20260509082557 | 84 | 61 | 8.0 | 14.0 | 0.00 | 0.02 | 0.01 | 74 | 1010.9 |
| 20260509082058 | 84 | 77 | 7.0 | 14.0 | 0.00 | 0.02 | 0.01 | 74 | 1010.8 |
| 20260509081610 | 84 | 78 | 9.0 | 14.0 | 0.00 | 0.02 | 0.01 | 74 | 1010.8 |
| 20260509081058 | 84 | 78 | 9.0 | 18.0 | 0.00 | 0.02 | 0.01 | 74 | 1010.8 |
| 20260509080557 | 84 | 67 | 12.0 | 18.0 | 0.00 | 0.02 | 0.01 | 74 | 1010.8 |
| 20260509080057 | 84 | 55 | 9.0 | 16.0 | 0.00 | 0.02 | 0.01 | 74 | 1010.7 |
| 20260509075557 | 84 | 94 | 9.0 | 19.0 | 0.00 | 0.02 | 0.01 | 74 | 1010.7 |
| 20260509075057 | 84 | 88 | 10.0 | 19.0 | 0.00 | 0.02 | 0.01 | 73 | 1010.7 |
| 20260509074600 | 84 | 74 | 11.0 | 19.0 | 0.00 | 0.02 | 0.01 | 72 | 1010.7 |
| 20260509074057 | 84 | 98 | 12.0 | 17.0 | 0.00 | 0.02 | 0.01 | 73 | 1010.5 |
| 20260509073559 | 85 | 69 | 9.0 | 20.0 | 0.00 | 0.02 | 0.01 | 72 | 1010.4 |
| 20260509073106 | 85 | 360 | 9.0 | 20.0 | 0.00 | 0.02 | 0.01 | 72 | 1010.4 |
| 20260509072600 | 85 | 103 | 12.0 | 18.0 | 0.00 | 0.02 | 0.01 | 71 | 1010.3 |
| 20260509072059 | 85 | 57 | 10.0 | 18.0 | 0.00 | 0.02 | 0.01 | 71 | 1010.2 |
| 20260509071559 | 85 | 76 | 11.0 | 18.0 | 0.00 | 0.02 | 0.01 | 70 | 1010.2 |
| 20260509071058 | 85 | 113 | 11.0 | 20.0 | 0.00 | 0.02 | 0.01 | 70 | 1010.1 |
| 20260509070556 | 85 | 111 | 12.0 | 20.0 | 0.00 | 0.02 | 0.01 | 71 | 1010.1 |
| 20260509070058 | 85 | 360 | 11.0 | 20.0 | 0.00 | 0.02 | 0.01 | 71 | 1010.2 |
| 20260509065557 | 85 | 98 | 13.0 | 20.0 | 0.00 | 0.02 | 0.01 | 69 | 1010.3 |
| 20260509065057 | 85 | 66 | 12.0 | 16.0 | 0.00 | 0.02 | 0.01 | 70 | 1010.3 |
| 20260509064618 | 86 | 93 | 9.0 | 17.0 | 0.00 | 0.02 | 0.01 | 70 | 1010.3 |
| 20260509064058 | 86 | 80 | 9.0 | 18.0 | 0.00 | 0.02 | 0.01 | 70 | 1010.2 |
| 20260509063558 | 87 | 114 | 9.0 | 19.0 | 0.00 | 0.02 | 0.01 | 68 | 1010.1 |
| 20260509063057 | 86 | 100 | 11.0 | 19.0 | 0.00 | 0.02 | 0.01 | 68 | 1010.1 |
| 20260509062558 | 87 | 70 | 9.0 | 18.0 | 0.00 | 0.02 | 0.01 | 68 | 1010.2 |
| 20260509062057 | 86 | 105 | 12.0 | 19.0 | 0.00 | 0.02 | 0.01 | 68 | 1010.2 |
| 20260509061556 | 87 | 98 | 11.0 | 21.0 | 0.00 | 0.02 | 0.01 | 68 | 1010.3 |
| 20260509061101 | 87 | 72 | 8.0 | 25.0 | 0.00 | 0.02 | 0.01 | 68 | 1010.2 |
| 20260509060557 | 86 | 100 | 14.0 | 25.0 | 0.00 | 0.02 | 0.01 | 69 | 1010.1 |
| 20260509060058 | 86 | 60 | 14.0 | 25.0 | 0.00 | 0.02 | 0.01 | 69 | 1010.1 |
| 20260509055557 | 86 | 86 | 17.0 | 25.0 | 0.00 | 0.02 | 0.01 | 68 | 1010.1 |
| 20260509055057 | 86 | 104 | 11.0 | 24.0 | 0.00 | 0.02 | 0.01 | 68 | 1010.0 |
| 20260509054602 | 86 | 42 | 11.0 | 25.0 | 0.00 | 0.02 | 0.01 | 69 | 1010.0 |
| 20260509054055 | 86 | 360 | 12.0 | 25.0 | 0.00 | 0.02 | 0.01 | 69 | 1010.1 |
| 20260509053558 | 87 | 360 | 13.0 | 25.0 | 0.00 | 0.02 | 0.01 | 67 | 1010.0 |
| 20260509053109 | 87 | 82 | 9.0 | 22.0 | 0.00 | 0.02 | 0.01 | 68 | 1010.1 |
| 20260509052558 | 87 | 90 | 13.0 | 25.0 | 0.00 | 0.02 | 0.01 | 68 | 1010.1 |
| 20260509052118 | 86 | 97 | 15.0 | 25.0 | 0.00 | 0.02 | 0.01 | 67 | 1010.2 |
| 20260509051559 | 86 | 74 | 11.0 | 22.0 | 0.00 | 0.02 | 0.01 | 68 | 1010.2 |
| 20260509051058 | 86 | 360 | 14.0 | 22.0 | 0.00 | 0.02 | 0.01 | 69 | 1010.3 |
| 20260509050601 | 86 | 94 | 14.0 | 28.0 | 0.00 | 0.02 | 0.01 | 69 | 1010.2 |
| 20260509050059 | 87 | 82 | 16.0 | 28.0 | 0.00 | 0.02 | 0.01 | 68 | 1010.2 |
| 20260509045557 | 87 | 88 | 16.0 | 22.0 | 0.00 | 0.02 | 0.01 | 68 | 1010.2 |
| 20260509045058 | 86 | 82 | 16.0 | 22.0 | 0.00 | 0.02 | 0.01 | 68 | 1010.2 |
| 20260509044557 | 87 | 109 | 12.0 | 21.0 | 0.00 | 0.02 | 0.01 | 66 | 1010.2 |
| 20260509044057 | 87 | 65 | 13.0 | 23.0 | 0.00 | 0.02 | 0.01 | 67 | 1010.2 |
| 20260509043556 | 86 | 96 | 16.0 | 23.0 | 0.00 | 0.02 | 0.01 | 68 | 1010.3 |
| 20260509043103 | 86 | 78 | 12.0 | 22.0 | 0.00 | 0.02 | 0.01 | 68 | 1010.3 |
| 20260509042558 | 86 | 124 | 15.0 | 24.0 | 0.00 | 0.02 | 0.01 | 68 | 1010.3 |
| 20260509042057 | 87 | 82 | 13.0 | 24.0 | 0.00 | 0.02 | 0.01 | 67 | 1010.3 |
| 20260509041620 | 88 | 99 | 12.0 | 22.0 | 0.00 | 0.02 | 0.01 | 66 | 1010.3 |
| 20260509041058 | 87 | 86 | 14.0 | 23.0 | 0.00 | 0.02 | 0.01 | 69 | 1010.3 |
| 20260509040557 | 87 | 85 | 15.0 | 27.0 | 0.00 | 0.02 | 0.01 | 68 | 1010.2 |
| 20260509040057 | 87 | 96 | 16.0 | 27.0 | 0.00 | 0.02 | 0.01 | 69 | 1010.4 |
| 20260509035557 | 87 | 73 | 17.0 | 27.0 | 0.00 | 0.02 | 0.01 | 68 | 1010.4 |
| 20260509035058 | 87 | 90 | 14.0 | 22.0 | 0.00 | 0.02 | 0.01 | 69 | 1010.5 |
| 20260509034558 | 87 | 98 | 13.0 | 24.0 | 0.00 | 0.02 | 0.01 | 68 | 1010.6 |
| 20260509034057 | 87 | 107 | 12.0 | 24.0 | 0.00 | 0.02 | 0.01 | 66 | 1010.7 |
| 20260509033557 | 87 | 117 | 15.0 | 23.0 | 0.00 | 0.02 | 0.01 | 67 | 1010.8 |
| 20260509033057 | 87 | 108 | 9.0 | 23.0 | 0.00 | 0.02 | 0.01 | 69 | 1010.8 |
| 20260509032557 | 86 | 72 | 12.0 | 23.0 | 0.00 | 0.02 | 0.01 | 69 | 1010.8 |
| 20260509032056 | 86 | 88 | 15.0 | 23.0 | 0.00 | 0.02 | 0.01 | 67 | 1010.8 |
| 20260509031558 | 87 | 56 | 15.0 | 26.0 | 0.00 | 0.02 | 0.01 | 66 | 1010.8 |
| 20260509031100 | 87 | 105 | 12.0 | 26.0 | 0.00 | 0.02 | 0.01 | 66 | 1010.8 |
| 20260509030558 | 87 | 114 | 12.0 | 22.0 | 0.00 | 0.02 | 0.01 | 66 | 1010.8 |
| 20260509030058 | 88 | 121 | 15.0 | 22.0 | 0.00 | 0.02 | 0.01 | 65 | 1010.9 |
| 20260509025559 | 89 | 117 | 9.0 | 21.0 | 0.00 | 0.02 | 0.01 | 64 | 1010.9 |
| 20260509025055 | 88 | 97 | 12.0 | 20.0 | 0.00 | 0.02 | 0.01 | 66 | 1010.9 |
| 20260509024600 | 88 | 75 | 10.0 | 20.0 | 0.00 | 0.02 | 0.01 | 67 | 1010.9 |
| 20260509024056 | 87 | 89 | 14.0 | 19.0 | 0.00 | 0.02 | 0.01 | 68 | 1011.0 |
| 20260509023558 | 87 | 88 | 11.0 | 19.0 | 0.00 | 0.02 | 0.01 | 68 | 1011.0 |
| 20260509023109 | 87 | 109 | 13.0 | 21.0 | 0.00 | 0.02 | 0.01 | 66 | 1011.2 |
| 20260509022601 | 87 | 116 | 12.0 | 24.0 | 0.00 | 0.02 | 0.01 | 65 | 1011.2 |
| 20260509022057 | 87 | 94 | 15.0 | 24.0 | 0.00 | 0.02 | 0.01 | 65 | 1011.4 |
| 20260509021559 | 87 | 112 | 12.0 | 23.0 | 0.00 | 0.02 | 0.01 | 67 | 1011.4 |
| 20260509021057 | 87 | 75 | 10.0 | 25.0 | 0.00 | 0.02 | 0.01 | 66 | 1011.4 |
| 20260509020556 | 87 | 64 | 15.0 | 25.0 | 0.00 | 0.02 | 0.01 | 68 | 1011.3 |
| 20260509020100 | 87 | 84 | 13.0 | 25.0 | 0.00 | 0.02 | 0.01 | 67 | 1011.3 |
| 20260509015556 | 87 | 113 | 12.0 | 20.0 | 0.00 | 0.02 | 0.01 | 67 | 1011.3 |
| 20260509015056 | 87 | 103 | 13.0 | 21.0 | 0.00 | 0.02 | 0.01 | 68 | 1011.4 |
| 20260509014556 | 87 | 78 | 14.0 | 21.0 | 0.00 | 0.02 | 0.01 | 67 | 1011.4 |
| 20260509014057 | 87 | 94 | 12.0 | 22.0 | 0.00 | 0.02 | 0.01 | 66 | 1011.5 |
| 20260509013558 | 87 | 116 | 15.0 | 24.0 | 0.00 | 0.02 | 0.01 | 67 | 1011.5 |
| 20260509013104 | 87 | 80 | 13.0 | 25.0 | 0.00 | 0.02 | 0.01 | 66 | 1011.5 |
| 20260509012557 | 87 | 72 | 16.0 | 26.0 | 0.00 | 0.02 | 0.01 | 66 | 1011.5 |
| 20260509012100 | 87 | 101 | 14.0 | 26.0 | 0.00 | 0.02 | 0.01 | 67 | 1011.5 |
| 20260509011600 | 87 | 71 | 14.0 | 26.0 | 0.00 | 0.02 | 0.01 | 68 | 1011.6 |
| 20260509011055 | 87 | 100 | 16.0 | 26.0 | 0.00 | 0.02 | 0.01 | 67 | 1011.4 |
| 20260509010556 | 87 | 90 | 13.0 | 24.0 | 0.00 | 0.02 | 0.01 | 66 | 1011.5 |
| 20260509010057 | 86 | 98 | 16.0 | 26.0 | 0.00 | 0.02 | 0.01 | 68 | 1011.4 |
| 20260509005557 | 87 | 94 | 14.0 | 26.0 | 0.00 | 0.02 | 0.01 | 69 | 1011.4 |
| 20260509005055 | 87 | 71 | 12.0 | 25.0 | 0.00 | 0.02 | 0.01 | 68 | 1011.4 |
| 20260509004558 | 86 | 74 | 14.0 | 24.0 | 0.00 | 0.02 | 0.01 | 69 | 1011.3 |
| 20260509004057 | 86 | 96 | 11.0 | 24.0 | 0.00 | 0.02 | 0.01 | 70 | 1011.4 |
| 20260509003558 | 86 | 107 | 16.0 | 26.0 | 0.00 | 0.02 | 0.01 | 70 | 1011.3 |
| 20260509003058 | 86 | 103 | 14.0 | 27.0 | 0.00 | 0.02 | 0.01 | 71 | 1011.4 |
| 20260509002600 | 86 | 109 | 15.0 | 27.0 | 0.00 | 0.02 | 0.01 | 69 | 1011.4 |
| 20260509002058 | 87 | 112 | 12.0 | 23.0 | 0.00 | 0.02 | 0.01 | 70 | 1011.5 |
| 20260509001559 | 86 | 115 | 15.0 | 23.0 | 0.00 | 0.02 | 0.01 | 70 | 1011.6 |
| 20260509001058 | 86 | 118 | 13.0 | 26.0 | 0.00 | 0.02 | 0.01 | 70 | 1011.5 |
| 20260509000600 | 85 | 71 | 15.0 | 26.0 | 0.00 | 0.02 | 0.01 | 72 | 1011.5 |
| 20260509000113 | 85 | 71 | 16.0 | 25.0 | 0.00 | 0.02 | 0.01 | 71 | 1011.5 |
| 20260508235557 | 85 | 78 | 13.0 | 24.0 | 0.00 | 0.02 | 0.01 | 71 | 1011.5 |
| 20260508235056 | 85 | 61 | 14.0 | 25.0 | 0.00 | 0.02 | 0.01 | 70 | 1011.5 |
| 20260508234559 | 86 | 74 | 14.0 | 25.0 | 0.00 | 0.02 | 0.01 | 69 | 1011.5 |
| 20260508234058 | 87 | 102 | 10.0 | 25.0 | 0.00 | 0.02 | 0.01 | 68 | 1011.5 |
| 20260508233555 | 87 | 107 | 14.0 | 21.0 | 0.00 | 0.02 | 0.01 | 67 | 1011.5 |
| 20260508233117 | 86 | 107 | 13.0 | 23.0 | 0.00 | 0.02 | 0.01 | 69 | 1011.6 |
| 20260508232555 | 86 | 80 | 15.0 | 26.0 | 0.00 | 0.02 | 0.01 | 69 | 1011.4 |
| 20260508232057 | 86 | 80 | 14.0 | 26.0 | 0.00 | 0.02 | 0.01 | 70 | 1011.4 |
| 20260508231556 | 86 | 60 | 16.0 | 28.0 | 0.00 | 0.02 | 0.01 | 70 | 1011.4 |
| 20260508231055 | 86 | 69 | 12.0 | 28.0 | 0.00 | 0.02 | 0.01 | 70 | 1011.4 |
| 20260508230556 | 85 | 94 | 18.0 | 27.0 | 0.00 | 0.02 | 0.01 | 69 | 1011.4 |
| 20260508230100 | 85 | 62 | 13.0 | 23.0 | 0.00 | 0.02 | 0.01 | 71 | 1011.5 |
| 20260508225556 | 85 | 108 | 15.0 | 28.0 | 0.00 | 0.02 | 0.01 | 72 | 1011.5 |
| 20260508225056 | 85 | 116 | 14.0 | 28.0 | 0.00 | 0.02 | 0.01 | 71 | 1011.5 |
| 20260508224641 | 85 | 114 | 16.0 | 27.0 | 0.00 | 0.02 | 0.01 | 72 | 1011.5 |
| 20260508224055 | 84 | 103 | 14.0 | 24.0 | 0.00 | 0.02 | 0.01 | 73 | 1011.4 |
| 20260508223603 | 84 | 73 | 13.0 | 24.0 | 0.00 | 0.02 | 0.01 | 74 | 1011.4 |
| 20260508223058 | 84 | 84 | 12.0 | 23.0 | 0.00 | 0.02 | 0.01 | 75 | 1011.4 |
| 20260508222557 | 83 | 112 | 14.0 | 28.0 | 0.00 | 0.02 | 0.01 | 75 | 1011.5 |
| 20260508222058 | 84 | 81 | 12.0 | 28.0 | 0.00 | 0.02 | 0.01 | 74 | 1011.4 |
| 20260508221558 | 84 | 47 | 14.0 | 24.0 | 0.00 | 0.02 | 0.01 | 73 | 1011.4 |
| 20260508221058 | 84 | 106 | 11.0 | 22.0 | 0.00 | 0.02 | 0.01 | 74 | 1011.4 |
| 20260508220557 | 83 | 113 | 12.0 | 22.0 | 0.00 | 0.02 | 0.01 | 75 | 1011.4 |
| 20260508220058 | 83 | 110 | 14.0 | 22.0 | 0.00 | 0.02 | 0.01 | 75 | 1011.3 |
| 20260508215556 | 83 | 94 | 15.0 | 23.0 | 0.00 | 0.02 | 0.01 | 75 | 1011.2 |
| 20260508215101 | 83 | 65 | 10.0 | 26.0 | 0.00 | 0.02 | 0.01 | 76 | 1011.3 |
| 20260508214558 | 83 | 55 | 14.0 | 26.0 | 0.00 | 0.02 | 0.01 | 75 | 1011.3 |
| 20260508214057 | 83 | 360 | 11.0 | 18.0 | 0.00 | 0.02 | 0.01 | 77 | 1011.3 |
| 20260508213556 | 83 | 70 | 11.0 | 20.0 | 0.00 | 0.02 | 0.01 | 76 | 1011.3 |
| 20260508213057 | 83 | 360 | 11.0 | 20.0 | 0.00 | 0.02 | 0.01 | 75 | 1011.4 |
| 20260508212558 | 83 | 360 | 13.0 | 20.0 | 0.00 | 0.02 | 0.01 | 74 | 1011.4 |
| 20260508212057 | 83 | 69 | 10.0 | 19.0 | 0.00 | 0.02 | 0.01 | 75 | 1011.3 |
| 20260508211559 | 83 | 101 | 10.0 | 19.0 | 0.00 | 0.02 | 0.01 | 76 | 1011.3 |
| 20260508211058 | 82 | 77 | 10.0 | 19.0 | 0.00 | 0.02 | 0.01 | 77 | 1011.1 |
| 20260508210557 | 82 | 90 | 9.0 | 17.0 | 0.00 | 0.02 | 0.01 | 78 | 1011.1 |
| 20260508210058 | 82 | 108 | 8.0 | 18.0 | 0.00 | 0.02 | 0.01 | 78 | 1011.2 |
| 20260508205556 | 82 | 360 | 8.0 | 18.0 | 0.00 | 0.02 | 0.01 | 78 | 1011.2 |
| 20260508205056 | 82 | 83 | 10.0 | 18.0 | 0.00 | 0.02 | 0.01 | 78 | 1010.9 |
| 20260508204558 | 82 | 360 | 11.0 | 17.0 | 0.00 | 0.02 | 0.01 | 78 | 1011.0 |
| 20260508204058 | 82 | 61 | 11.0 | 17.0 | 0.00 | 0.02 | 0.01 | 78 | 1011.0 |
| 20260508203558 | 82 | 101 | 9.0 | 16.0 | 0.00 | 0.02 | 0.01 | 78 | 1011.1 |
| 20260508203057 | 82 | 136 | 8.0 | 18.0 | 0.00 | 0.02 | 0.01 | 79 | 1010.9 |
| 20260508202558 | 82 | 360 | 11.0 | 18.0 | 0.00 | 0.02 | 0.01 | 79 | 1010.9 |
| 20260508202059 | 82 | 75 | 8.0 | 16.0 | 0.00 | 0.02 | 0.01 | 79 | 1010.8 |
| 20260508201558 | 81 | 66 | 9.0 | 16.0 | 0.00 | 0.02 | 0.01 | 79 | 1010.8 |
| 20260508201056 | 81 | 76 | 8.0 | 16.0 | 0.00 | 0.02 | 0.01 | 79 | 1010.7 |
| 20260508200556 | 81 | 38 | 8.0 | 16.0 | 0.00 | 0.02 | 0.01 | 79 | 1010.7 |
| 20260508200111 | 81 | 81 | 9.0 | 17.0 | 0.00 | 0.02 | 0.01 | 79 | 1010.6 |
| 20260508195558 | 81 | 360 | 11.0 | 17.0 | 0.00 | 0.02 | 0.01 | 79 | 1010.5 |
| 20260508195100 | 81 | 90 | 7.0 | 19.0 | 0.00 | 0.02 | 0.01 | 80 | 1010.4 |
| 20260508194557 | 81 | 73 | 11.0 | 19.0 | 0.00 | 0.02 | 0.01 | 80 | 1010.5 |
| 20260508194057 | 81 | 95 | 9.0 | 17.0 | 0.00 | 0.02 | 0.01 | 81 | 1010.4 |
| 20260508193557 | 80 | 360 | 8.0 | 14.0 | 0.00 | 0.02 | 0.01 | 81 | 1010.5 |
| 20260508193150 | 80 | 88 | 8.0 | 14.0 | 0.00 | 0.02 | 0.01 | 80 | 1010.3 |
| 20260508192557 | 80 | 102 | 6.0 | 14.0 | 0.00 | 0.02 | 0.01 | 80 | 1010.3 |
| 20260508192059 | 80 | 85 | 9.0 | 14.0 | 0.00 | 0.02 | 0.01 | 80 | 1010.4 |
| 20260508191603 | 80 | 107 | 8.0 | 13.0 | 0.00 | 0.02 | 0.01 | 79 | 1010.3 |
| 20260508191056 | 80 | 96 | 10.0 | 16.0 | 0.00 | 0.02 | 0.01 | 79 | 1010.3 |
| 20260508190556 | 80 | 360 | 9.0 | 19.0 | 0.00 | 0.02 | 0.01 | 79 | 1010.3 |
| 20260508190057 | 80 | 92 | 7.0 | 19.0 | 0.00 | 0.02 | 0.01 | 79 | 1010.3 |
| 20260508185559 | 81 | 88 | 11.0 | 19.0 | 0.00 | 0.02 | 0.01 | 80 | 1010.2 |
| 20260508185057 | 81 | 73 | 10.0 | 18.0 | 0.00 | 0.02 | 0.01 | 82 | 1010.1 |
| 20260508184608 | 80 | 71 | 8.0 | 14.0 | 0.00 | 0.02 | 0.01 | 82 | 1010.2 |
| 20260508184056 | 80 | 84 | 6.0 | 16.0 | 0.01 | 0.02 | 0.01 | 81 | 1010.1 |
| 20260508183555 | 80 | 95 | 8.0 | 16.0 | 0.01 | 0.02 | 0.01 | 81 | 1010.1 |
| 20260508183125 | 80 | 360 | 9.0 | 19.0 | 0.01 | 0.02 | 0.01 | 80 | 1010.2 |
| 20260508182558 | 80 | 52 | 10.0 | 19.0 | 0.01 | 0.02 | 0.01 | 80 | 1010.1 |
| 20260508182055 | 80 | 109 | 11.0 | 16.0 | 0.01 | 0.02 | 0.01 | 80 | 1010.1 |
| 20260508181607 | 80 | 101 | 8.0 | 15.0 | 0.01 | 0.02 | 0.01 | 79 | 1010.1 |
| 20260508181056 | 81 | 76 | 9.0 | 15.0 | 0.01 | 0.02 | 0.01 | 81 | 1010.2 |
| 20260508180556 | 81 | 57 | 6.0 | 15.0 | 0.01 | 0.02 | 0.01 | 83 | 1010.3 |
| 20260508180059 | 81 | 360 | 9.0 | 15.0 | 0.01 | 0.02 | 0.01 | 82 | 1010.2 |
| 20260508175556 | 81 | 360 | 8.0 | 15.0 | 0.01 | 0.02 | 0.01 | 83 | 1010.2 |
| 20260508175055 | 81 | 110 | 8.0 | 15.0 | 0.01 | 0.02 | 0.01 | 83 | 1010.2 |
| 20260508174603 | 81 | 76 | 4.0 | 12.0 | 0.01 | 0.02 | 0.01 | 83 | 1010.2 |
| 20260508174057 | 81 | 94 | 6.0 | 12.0 | 0.00 | 0.01 | 0.00 | 82 | 1010.3 |